Regional Weather Roundup
Issued by NWS

Home | Current Version | Previous Version | Graphics & Text | Print | Product List | Glossary On
Versions: 1 2 3 4 5 6 7 8 9 10 11 12 13 14 15 16 17 18 19 20 21 22 23 24 25 26 27 28 29 30 31 32 33 34 35 36 37 38 39 40 41 42 43 44 45 46 47 48 49 50
000
ASUS43 KOAX 251202
RWRNE

WEATHER ROUNDUP FOR NEBRASKA
NATIONAL WEATHER SERVICE OMAHA NE
700 AM CDT THU MAY 25 2017

NOTES: SATELLITE DATA IS BEING USED TO AUGMENT CLOUD COVER ABOVE
       12000 FEET.
       "FAIR" INDICATES FEW OR NO CLOUDS BELOW 12,000 FEET WITH NO
       SIGNIFICANT WEATHER AND/OR OBSTRUCTIONS TO VISIBILITY.

  * THESE STATIONS DO NOT REPORT WEATHER SUCH AS RAIN...SNOW OR FOG.

NEZ001>004-019>022-054>056-251300-
NEBRASKA PANHANDLE

CITY           SKY/WX    TMP DP  RH WIND       PRES   REMARKS
SCOTTSBLUFF    CLOUDY    55  46  71 NW3       29.52F
6HR MIN TEMP:  53; 6HR MAX TEMP:  60;

ALLIANCE       MOCLDY    50  47  89 NW5       29.52R
6HR MIN TEMP:  44; 6HR MAX TEMP:  56;

CHADRON        CLOUDY    54  47  77 CALM      29.51R
6HR MIN TEMP:  53; 6HR MAX TEMP:  60;

GORDON         FAIR      54  49  86 W6        29.51R
6HR MIN TEMP:  49; 6HR MAX TEMP:  61;

SIDNEY         CLOUDY    57  45  64 NW16      29.55R
6HR MIN TEMP:  52; 6HR MAX TEMP:  62;

$$

NEZ057>060-069>072-079>082-251300-
SOUTHWEST NEBRASKA

CITY           SKY/WX    TMP DP  RH WIND       PRES   REMARKS
NORTH PLATTE   MOCLDY    50  45  83 SE8       29.50S
6HR MIN TEMP:  47; 6HR MAX TEMP:  56;

IMPERIAL       CLOUDY    50  46  86 S8        29.47F
6HR MIN TEMP:  50; 6HR MAX TEMP:  58;

LEXINGTON      CLOUDY    51  45  78 SE13      29.53F
MCCOOK         PTCLDY    47  45  93 E6        29.51R
6HR MIN TEMP:  45; 6HR MAX TEMP:  55;

OGALLALA       PTCLDY    51  47  88 W5        29.49R
$$

NEZ005>010-023>029-035>040-094-251300-
NORTH CENTRAL NEBRASKA

CITY           SKY/WX    TMP DP  RH WIND       PRES   REMARKS
VALENTINE      CLEAR     54  43  66 S10       29.46R
6HR MIN TEMP:  53; 6HR MAX TEMP:  60;

AINSWORTH      CLEAR     51  45  78 SW13G25   29.48R
BROKEN BOW     CLEAR     50  45  83 S10       29.51S
6HR MIN TEMP:  50; 6HR MAX TEMP:  54; 6HR PCP: TRACE;

O`NEILL        CLEAR     55  43  63 S20       29.52R
ORD            CLEAR     52  43  71 S12       29.53S
6HR MIN TEMP:  51; 6HR MAX TEMP:  54; 6HR PCP: TRACE;

THEDFORD       PTCLDY    51  45  78 S9        29.48S
$$

NEZ041-046>049-061>064-073>077-083>087-251300-
SOUTH CENTRAL NEBRASKA

CITY           SKY/WX    TMP DP  RH WIND       PRES   REMARKS
GRAND ISLAND   CLEAR     52  45  77 S14       29.58F
6HR MIN TEMP:  51; 6HR MAX TEMP:  55;

AURORA         CLOUDY    52  44  73 S12       29.60R
HASTINGS       CLEAR     52  43  71 S10       29.59S
6HR MIN TEMP:  51; 6HR MAX TEMP:  54;

HEBRON         PTCLDY    52  45  78 SE7       29.63R
HOLDREGE       CLOUDY    50  43  77 S16G22    29.54S
KEARNEY *      CLEAR     52  43  71 S15       29.56S
$$

NEZ011>018-030>034-042>045-251300-
NORTHEAST NEBRASKA

CITY           SKY/WX    TMP DP  RH WIND       PRES   REMARKS
NORFOLK        CLOUDY    53  43  68 S13       29.59S
6HR MIN TEMP:  52; 6HR MAX TEMP:  53;

ALBION         PTCLDY    55  43  64 S12       29.58R
BLAIR          CLEAR     54  48  82 S13       29.64S
FREMONT        CLEAR     54  46  73 S8        29.65R
TEKAMAH        CLEAR     51  32  48 S8        29.65R
6HR MIN TEMP:  48; 6HR MAX TEMP:  51;

WAYNE          CLOUDY    51  47  84 S10       29.61R
$$

NEZ050>053-065>068-078-088>093-251300-
SOUTHEAST NEBRASKA

CITY           SKY/WX    TMP DP  RH WIND       PRES   REMARKS
LINCOLN        PTCLDY    52  47  83 S7        29.65R
6HR MIN TEMP:  46; 6HR MAX TEMP:  52;

OMAHA EPPLEY   MOSUNNY   53  47  79 SE10      29.65S
6HR MIN TEMP:  49; 6HR MAX TEMP:  55;

BEATRICE       CLEAR     52  46  82 S7        29.65R
FALLS CITY     PTCLDY    49  47  93 SE3       29.67F
6HR MIN TEMP:  47; 6HR MAX TEMP:  52;

NEBRASKA CITY  CLEAR     52  48  85 S6        29.67R
PLATTSMOUTH    CLEAR     54  49  85 SE8       29.66R
$$

NEZ044-045-051>053-067-251300-
OMAHA AREA

CITY           SKY/WX    TMP DP  RH WIND       PRES   REMARKS
OMAHA EPPLEY   MOSUNNY   53  47  79 SE10      29.65S
6HR MIN TEMP:  49; 6HR MAX TEMP:  55;

BLAIR          CLEAR     54  48  82 S13       29.64S
FREMONT        CLEAR     54  46  73 S8        29.65R
MILLARD        CLEAR     55  50  85 SE8       29.65S
OFFUTT AFB     CLEAR     51  47  88 SE8       29.64S
PLATTSMOUTH    CLEAR     54  49  85 SE8       29.66R
WAHOO          FAIR      51  46  80 S9        29.63S
$$



USA.gov is the U.S. government's official web portal to all federal, state and local government web resources and services.